KG6SIB Weather Reports


Display with metric or nautical units.
time (UTC)temp
F
wind
direction
speed
MPH
gust
MPH
rain 1hr
in
rain 24hr
in
rain mn
in
humidity
%
barometer
mb
20181212082220 39 32 7.0 7.0 0.00 0.00 0.00 74 1017.2
20181212081721 39 48 6.0 7.0 0.00 0.00 0.00 72 1017.2
20181212081219 40 56 5.0 6.0 0.00 0.00 0.00 71 1017.4
20181212080719 40 43 4.0 7.0 0.00 0.00 0.00 71 1017.4
20181212075724 41 32 4.0 7.0 0.00 0.00 0.00 70 1018.0
20181212075225 40 51 4.0 6.0 0.00 0.00 0.00 71 1017.9
20181212074724 41 35 5.0 6.0 0.00 0.00 0.00 70 1017.9
20181212074224 41 34 3.0 5.0 0.00 0.00 0.00 69 1017.8
20181212073724 42 51 4.0 7.0 0.00 0.00 0.00 68 1018.1
20181212073224 42 49 4.0 7.0 0.00 0.00 0.00 69 1018.1
20181212072723 41 49 5.0 7.0 0.00 0.00 0.00 69 1017.7
20181212072224 42 30 4.0 7.0 0.00 0.00 0.00 68 1018.0
20181212071723 43 48 7.0 7.0 0.00 0.00 0.00 67 1018.0
20181212071223 43 37 3.0 7.0 0.00 0.00 0.00 68 1018.0
20181212070723 43 32 4.0 7.0 0.00 0.00 0.00 67 1018.0
20181212070223 43 50 5.0 5.0 0.00 0.00 0.00 68 1018.1
20181212065723 44 41 5.0 7.0 0.00 0.00 0.00 67 1017.7
20181212065223 44 40 5.0 7.0 0.00 0.00 0.00 67 1017.7
20181212064723 45 41 4.0 5.0 0.00 0.00 0.00 66 1017.9
20181212064222 45 34 3.0 4.0 0.00 0.00 0.00 65 1017.9
20181212063722 47 51 2.0 3.0 0.00 0.00 0.00 63 1018.1
20181212063222 48 40 2.0 3.0 0.00 0.00 0.00 62 1018.0
20181212062722 48 40 0.0 3.0 0.00 0.00 0.00 61 1018.1
20181212062222 49 44 2.0 3.0 0.00 0.00 0.00 59 1018.4
20181212061721 50 22 1.0 3.0 0.00 0.00 0.00 59 1018.4
20181212061221 50 302 0.0 5.0 0.00 0.00 0.00 57 1018.4
20181212060722 50 282 1.0 9.0 0.00 0.00 0.00 56 1018.4
20181212060221 50 8 3.0 9.0 0.00 0.00 0.00 54 1018.2
20181212055721 50 143 0.0 2.0 0.00 0.00 0.00 47 1017.8
20181212055221 51 55 0.0 12.0 0.00 0.00 0.00 46 1017.7
20181212054721 51 338 1.0 12.0 0.00 0.00 0.00 45 1017.6
20181212054220 50 42 1.0 6.0 0.00 0.00 0.00 47 1017.5
20181212053720 50 114 2.0 6.0 0.00 0.00 0.00 49 1017.5
20181212053220 50 316 3.0 4.0 0.00 0.00 0.00 51 1017.4
20181212052720 50 65 0.0 4.0 0.00 0.00 0.00 53 1017.4
20181212052220 49 295 3.0 3.0 0.00 0.00 0.00 57 1017.2
20181212051720 48 350 1.0 4.0 0.00 0.00 0.00 62 1017.2
20181212051220 48 329 2.0 4.0 0.00 0.00 0.00 69 1017.3
20181212050720 48 264 2.0 4.0 0.00 0.00 0.00 72 1017.4
20181212050219 49 244 1.0 4.0 0.00 0.00 0.00 70 1017.4
20181212045719 50 127 1.0 4.0 0.00 0.00 0.00 61 1017.4
20181212045219 51 141 1.0 3.0 0.00 0.00 0.00 49 1017.4
20181212044719 51 300 1.0 6.0 0.00 0.00 0.00 48 1017.4
20181212044220 51 100 2.0 9.0 0.00 0.00 0.00 49 1017.3
20181212043719 51 104 5.0 9.0 0.00 0.00 0.00 50 1017.2
20181212043219 50 247 2.0 9.0 0.00 0.00 0.00 52 1017.1
20181212042718 50 57 4.0 9.0 0.00 0.00 0.00 54 1017.0
20181212042218 49 84 5.0 9.0 0.00 0.00 0.00 58 1016.7
20181212041718 48 56 0.0 2.0 0.00 0.00 0.00 63 1016.7
20181212041218 48 132 0.0 3.0 0.00 0.00 0.00 64 1016.8
20181212040718 48 198 2.0 3.0 0.00 0.00 0.00 65 1016.8
20181212040218 48 165 2.0 3.0 0.00 0.00 0.00 63 1016.9
20181212035718 48 1 0.0 3.0 0.00 0.00 0.00 65 1016.2
20181212035217 48 308 0.0 4.0 0.00 0.00 0.00 66 1016.1
20181212034721 47 288 3.0 4.0 0.00 0.00 0.00 68 1015.9
20181212034217 46 9 1.0 2.0 0.00 0.00 0.00 76 1015.7
20181212033717 46 323 1.0 3.0 0.00 0.00 0.00 79 1015.8
20181212033218 45 9 0.0 3.0 0.00 0.00 0.00 85 1015.6
20181212032717 46 50 3.0 3.0 0.00 0.00 0.00 84 1016.0
20181212032217 46 67 0.0 2.0 0.00 0.00 0.00 84 1015.9
20181212031716 46 193 0.0 0.0 0.00 0.00 0.00 84 1015.7
20181212031217 46 193 0.0 1.0 0.00 0.00 0.00 84 1015.7
20181212030716 47 146 0.0 4.0 0.00 0.00 0.00 82 1015.5
20181212030246 47 154 1.0 4.0 0.00 0.00 0.00 81 1015.5
20181212025716 46 281 3.0 3.0 0.00 0.00 0.00 87 1015.0
20181212025245 46 35 1.0 3.0 0.00 0.00 0.00 90 1014.9
20181212024716 46 95 2.0 3.0 0.00 0.00 0.00 89 1014.8
20181212024216 45 52 2.0 3.0 0.00 0.00 0.00 87 1014.8
20181212023715 46 37 0.0 3.0 0.00 0.00 0.00 88 1014.8
20181212023246 46 37 3.0 4.0 0.00 0.00 0.00 88 1014.9
20181212022715 46 56 1.0 4.0 0.00 0.00 0.00 89 1014.8
20181212022215 46 60 0.0 2.0 0.00 0.00 0.00 87 1014.8
20181212021715 46 76 0.0 1.0 0.00 0.00 0.00 87 1014.8
20181212021245 46 76 0.0 1.0 0.00 0.00 0.00 85 1014.7
20181212020714 47 293 1.0 1.0 0.00 0.00 0.00 85 1015.0
20181212015734 47 92 1.0 5.0 0.00 0.00 0.00 85 1014.9
20181212015233 46 320 2.0 5.0 0.00 0.00 0.00 89 1014.9
20181212014733 46 39 5.0 5.0 0.00 0.00 0.00 86 1014.7
20181212014233 46 34 1.0 2.0 0.00 0.00 0.00 85 1014.7
20181212013733 46 34 0.0 3.0 0.00 0.00 0.00 84 1014.7
20181212013233 46 53 1.0 3.0 0.00 0.00 0.00 83 1014.7
20181212012733 46 53 0.0 5.0 0.00 0.00 0.00 82 1014.5
20181212012233 47 34 1.0 5.0 0.00 0.00 0.00 81 1014.6
20181212011732 47 50 2.0 3.0 0.00 0.00 0.00 81 1014.5
20181212011232 48 62 2.0 3.0 0.00 0.00 0.00 81 1014.7
20181212010732 49 44 1.0 3.0 0.00 0.00 0.00 79 1014.7
20181212010233 49 51 1.0 2.0 0.00 0.00 0.00 76 1014.6
20181212005732 50 51 0.0 2.0 0.00 0.00 0.00 77 1014.8
20181212005232 51 287 1.0 1.0 0.00 0.00 0.00 77 1014.9
20181212004732 52 280 0.0 1.0 0.00 0.00 0.00 76 1014.9
20181212004232 52 276 0.0 3.0 0.00 0.00 0.00 75 1014.9
20181212003731 53 275 1.0 3.0 0.00 0.00 0.00 74 1015.1
20181212003231 53 314 2.0 4.0 0.00 0.00 0.00 73 1015.1
20181212002731 54 316 1.0 6.0 0.00 0.00 0.00 71 1015.0
20181212002231 54 320 4.0 8.0 0.00 0.00 0.00 68 1014.9
20181212001731 55 314 3.0 8.0 0.00 0.00 0.00 48 1014.9
20181212001231 55 326 6.0 8.0 0.00 0.00 0.00 47 1014.8
20181212000730 55 315 2.0 8.0 0.00 0.00 0.00 49 1014.7
20181212000231 55 65 5.0 8.0 0.00 0.00 0.00 67 1014.8
20181211235730 55 68 4.0 4.0 0.00 0.00 0.00 70 1015.1
20181211235230 55 223 2.0 3.0 0.00 0.00 0.00 70 1015.2
20181211234730 55 306 3.0 4.0 0.00 0.00 0.00 70 1015.1
20181211234231 55 302 2.0 6.0 0.00 0.00 0.00 70 1015.2
20181211233730 56 256 3.0 6.0 0.00 0.00 0.00 69 1015.3
20181211233231 56 270 2.0 5.0 0.00 0.00 0.00 69 1015.1
20181211232729 56 252 2.0 5.0 0.00 0.00 0.00 68 1015.2
20181211232229 56 255 3.0 4.0 0.00 0.00 0.00 67 1015.1
20181211231729 56 228 2.0 5.0 0.00 0.00 0.00 68 1015.0
20181211231230 57 309 4.0 5.0 0.00 0.00 0.00 67 1014.9
20181211230730 57 245 4.0 5.0 0.00 0.00 0.00 66 1015.0
20181211230229 57 302 3.0 5.0 0.00 0.00 0.00 66 1014.9
20181211225728 57 234 3.0 5.0 0.00 0.00 0.00 65 1014.6
20181211225228 57 293 3.0 8.0 0.00 0.00 0.00 67 1014.6
20181211224728 56 261 4.0 8.0 0.00 0.00 0.00 67 1014.6
20181211224229 56 274 5.0 8.0 0.00 0.00 0.00 66 1014.5
20181211223728 56 262 4.0 9.0 0.00 0.00 0.00 66 1014.6
20181211223228 57 267 3.0 9.0 0.00 0.00 0.00 65 1014.6
20181211222728 57 274 4.0 8.0 0.00 0.00 0.00 65 1014.6
20181211222227 58 260 7.0 8.0 0.00 0.00 0.00 63 1014.8
20181211221728 58 276 3.0 9.0 0.00 0.00 0.00 64 1014.8
20181211221227 58 257 0.0 9.0 0.00 0.00 0.00 63 1014.8
20181211220727 58 239 4.0 10.0 0.00 0.00 0.00 62 1014.8
20181211220227 58 264 3.0 10.0 0.00 0.00 0.00 62 1014.8
20181211215727 58 240 6.0 9.0 0.00 0.00 0.00 60 1014.3
20181211215227 58 290 3.0 9.0 0.00 0.00 0.00 58 1014.3
20181211214726 59 274 8.0 8.0 0.00 0.00 0.00 57 1014.6
20181211214226 59 281 4.0 7.0 0.00 0.00 0.00 55 1014.6
20181211213726 59 245 7.0 8.0 0.00 0.00 0.00 54 1014.5
20181211213226 59 309 5.0 8.0 0.00 0.00 0.00 53 1014.6
20181211212726 59 264 4.0 7.0 0.00 0.00 0.00 52 1014.6
20181211212226 58 200 3.0 7.0 0.00 0.00 0.00 53 1014.2
20181211211726 58 255 4.0 7.0 0.00 0.00 0.00 54 1014.3
20181211211225 58 274 4.0 9.0 0.00 0.00 0.00 52 1014.4
20181211210726 58 226 4.0 9.0 0.00 0.00 0.00 53 1014.6
20181211210225 59 262 4.0 10.0 0.00 0.00 0.00 54 1015.0
20181211205725 58 292 8.0 10.0 0.00 0.00 0.00 52 1014.4
20181211205225 58 299 1.0 8.0 0.00 0.00 0.00 49 1014.2
20181211204725 58 288 4.0 7.0 0.00 0.00 0.00 50 1014.2
20181211204224 58 292 7.0 8.0 0.00 0.00 0.00 50 1014.3
20181211203724 59 309 4.0 8.0 0.00 0.00 0.00 50 1014.7
20181211203225 59 307 5.0 8.0 0.00 0.00 0.00 50 1014.8
20181211202724 59 274 3.0 8.0 0.00 0.00 0.00 47 1014.8
20181211202224 60 237 2.0 13.0 0.00 0.00 0.00 44 1014.7
20181211201724 61 273 2.0 13.0 0.00 0.00 0.00 43 1015.1
20181211201224 62 58 11.0 14.0 0.00 0.00 0.00 32 1014.9
20181211200724 62 28 9.0 14.0 0.00 0.00 0.00 35 1014.7
20181211195735 61 49 8.0 16.0 0.00 0.00 0.00 33 1014.9
20181211195235 62 11 3.0 15.0 0.00 0.00 0.00 35 1015.4
20181211194737 62 44 9.0 18.0 0.00 0.00 0.00 34 1015.5
20181211194235 62 56 8.0 18.0 0.00 0.00 0.00 33 1015.6
20181211193735 62 23 11.0 17.0 0.00 0.00 0.00 33 1015.6
20181211193235 62 46 7.0 17.0 0.00 0.00 0.00 31 1015.5
20181211192735 62 110 5.0 15.0 0.00 0.00 0.00 33 1015.6
20181211192234 61 30 10.0 15.0 0.00 0.00 0.00 33 1015.4
20181211191734 60 63 6.0 17.0 0.00 0.00 0.00 35 1015.6
20181211191235 60 65 8.0 17.0 0.00 0.00 0.00 36 1015.6
20181211190734 60 47 9.0 16.0 0.00 0.00 0.00 35 1015.7
20181211190234 59 84 4.0 17.0 0.00 0.00 0.00 37 1015.6
20181211185734 59 54 12.0 17.0 0.00 0.00 0.00 35 1015.8
20181211185234 60 47 9.0 15.0 0.00 0.00 0.00 35 1016.0
20181211184733 60 129 3.0 15.0 0.00 0.00 0.00 36 1016.0
20181211184233 60 60 4.0 17.0 0.00 0.00 0.00 37 1016.2
20181211183733 59 62 9.0 18.0 0.00 0.00 0.00 37 1016.0
20181211183233 58 63 9.0 18.0 0.00 0.00 0.00 37 1016.2
20181211182734 58 48 7.0 16.0 0.00 0.00 0.00 38 1016.2
20181211182233 58 114 12.0 16.0 0.00 0.00 0.00 36 1016.3
20181211181732 57 83 7.0 16.0 0.00 0.00 0.00 37 1016.2
20181211181235 57 46 14.0 16.0 0.00 0.00 0.00 38 1016.3
20181211180732 57 98 8.0 12.0 0.00 0.00 0.00 37 1016.3
20181211180232 57 121 5.0 15.0 0.00 0.00 0.00 37 1016.3
20181211175734 57 78 10.0 16.0 0.00 0.00 0.00 39 1016.3
20181211175231 57 105 4.0 16.0 0.00 0.00 0.00 37 1016.2
20181211174733 57 82 10.0 15.0 0.00 0.00 0.00 37 1016.2
20181211174232 57 51 6.0 15.0 0.00 0.00 0.00 37 1016.4
20181211173732 57 32 7.0 17.0 0.00 0.00 0.00 37 1016.3
20181211173232 56 90 7.0 17.0 0.00 0.00 0.00 36 1016.1
20181211172731 56 117 7.0 11.0 0.00 0.00 0.00 37 1016.3
20181211172231 55 63 6.0 16.0 0.00 0.00 0.00 38 1016.0
20181211171732 55 48 6.0 16.0 0.00 0.00 0.00 40 1016.0
20181211171232 54 77 4.0 13.0 0.00 0.00 0.00 41 1016.0
20181211170731 54 70 5.0 18.0 0.00 0.00 0.00 42 1015.9
20181211170231 54 81 5.0 18.0 0.00 0.00 0.00 42 1016.0
20181211165731 54 113 7.0 16.0 0.00 0.00 0.00 42 1016.3
20181211165231 54 128 8.0 16.0 0.00 0.00 0.00 41 1015.9
20181211164730 53 57 5.0 15.0 0.00 0.00 0.00 41 1015.7
20181211164231 53 79 7.0 10.0 0.00 0.00 0.00 41 1015.9
20181211163730 52 86 9.0 9.0 0.00 0.00 0.00 41 1016.0
20181211163231 51 96 3.0 8.0 0.00 0.00 0.00 42 1015.5
20181211162731 50 82 7.0 7.0 0.00 0.00 0.00 47 1015.5
20181211162229 50 75 2.0 4.0 0.00 0.00 0.00 46 1015.8
20181211161730 49 326 2.0 3.0 0.00 0.00 0.00 46 1015.6
20181211161230 48 62 2.0 3.0 0.00 0.00 0.00 48 1015.5
20181211160729 48 54 2.0 2.0 0.00 0.00 0.00 47 1015.5
20181211160229 48 218 0.0 1.0 0.00 0.00 0.00 42 1015.5
20181211155728 49 163 0.0 1.0 0.00 0.00 0.00 40 1015.7
20181211155229 49 163 0.0 2.0 0.00 0.00 0.00 39 1015.6
20181211154728 49 350 0.0 3.0 0.00 0.00 0.00 40 1015.5
20181211154228 48 265 1.0 3.0 0.00 0.00 0.00 38 1015.1
20181211153729 47 91 0.0 3.0 0.00 0.00 0.00 37 1014.9
20181211153230 47 289 0.0 3.0 0.00 0.00 0.00 41 1014.9
20181211152727 46 44 2.0 2.0 0.00 0.00 0.00 42 1014.4
20181211152228 46 27 0.0 2.0 0.00 0.00 0.00 42 1014.4
20181211151727 45 27 1.0 4.0 0.00 0.00 0.00 45 1014.3
20181211151229 44 6 0.0 8.0 0.00 0.00 0.00 47 1013.9
20181211150727 45 41 2.0 8.0 0.00 0.00 0.00 48 1014.4
20181211150228 45 36 4.0 5.0 0.00 0.00 0.00 44 1014.5
20181211145727 44 40 2.0 5.0 0.00 0.00 0.00 45 1014.5
20181211145227 43 63 2.0 7.0 0.00 0.00 0.00 51 1014.2
20181211144727 44 78 4.0 7.0 0.00 0.00 0.00 49 1014.6
20181211144227 44 51 4.0 6.0 0.00 0.00 0.00 47 1014.8
20181211143726 44 35 3.0 4.0 0.00 0.00 0.00 47 1014.8
20181211143227 45 48 3.0 6.0 0.00 0.00 0.00 45 1014.7
20181211142726 44 33 3.0 6.0 0.00 0.00 0.00 45 1014.7
20181211142226 45 66 3.0 6.0 0.00 0.00 0.00 43 1014.7
20181211141726 45 37 4.0 6.0 0.00 0.00 0.00 47 1014.9
20181211141228 45 60 4.0 5.0 0.00 0.00 0.00 46 1014.8
20181211140725 46 27 2.0 3.0 0.00 0.00 0.00 42 1015.1
20181211135729 47 49 1.0 4.0 0.00 0.00 0.00 38 1014.8
20181211135227 46 8 1.0 6.0 0.00 0.00 0.00 38 1014.8
20181211134727 47 66 4.0 6.0 0.00 0.00 0.00 40 1014.7
20181211134228 46 27 3.0 6.0 0.00 0.00 0.00 43 1015.0
20181211133727 47 46 3.0 3.0 0.00 0.00 0.00 37 1014.9
20181211133227 47 46 0.0 2.0 0.00 0.00 0.00 36 1014.8
20181211132727 48 48 2.0 3.0 0.00 0.00 0.00 37 1015.0
20181211132227 48 63 1.0 5.0 0.00 0.00 0.00 32 1015.1
20181211131727 47 25 2.0 5.0 0.00 0.00 0.00 34 1014.8
20181211131227 47 39 4.0 5.0 0.00 0.00 0.00 34 1014.5
20181211130727 47 40 2.0 5.0 0.00 0.00 0.00 37 1014.4
20181211130227 48 37 3.0 5.0 0.00 0.00 0.00 37 1014.6
20181211125726 48 52 1.0 4.0 0.00 0.00 0.00 38 1014.7
20181211125226 49 51 2.0 4.0 0.00 0.00 0.00 36 1014.7
20181211124728 49 333 0.0 7.0 0.00 0.00 0.00 32 1014.6
20181211124226 49 129 0.0 7.0 0.00 0.00 0.00 36 1014.7
20181211123725 48 84 2.0 6.0 0.00 0.00 0.00 38 1014.7
20181211123225 50 46 3.0 6.0 0.00 0.00 0.00 34 1014.9
20181211122725 49 38 5.0 5.0 0.00 0.00 0.00 36 1014.8
20181211122225 50 44 2.0 5.0 0.00 0.00 0.00 39 1014.9
20181211121725 50 16 2.0 3.0 0.00 0.00 0.00 35 1014.8
20181211121225 50 257 0.0 6.0 0.00 0.00 0.00 37 1014.9
20181211120725 51 338 0.0 7.0 0.00 0.00 0.00 37 1014.9
20181211120224 50 55 3.0 7.0 0.00 0.00 0.00 38 1014.7
20181211115725 49 84 5.0 8.0 0.00 0.00 0.00 42 1015.2
20181211115225 47 38 3.0 8.0 0.00 0.00 0.00 44 1015.0
20181211114724 47 56 4.0 7.0 0.00 0.00 0.00 47 1015.3
20181211114224 47 61 4.0 6.0 0.00 0.00 0.00 45 1015.5
20181211113724 46 60 3.0 6.0 0.00 0.00 0.00 49 1015.4
20181211113224 47 63 4.0 4.0 0.00 0.00 0.00 50 1015.7
20181211112724 47 53 2.0 5.0 0.00 0.00 0.00 47 1015.8
20181211112223 48 58 1.0 7.0 0.00 0.00 0.00 48 1015.6
20181211111723 48 67 4.0 7.0 0.00 0.00 0.00 44 1015.5
20181211111223 48 84 3.0 6.0 0.00 0.00 0.00 49 1015.7
20181211110723 48 70 4.0 4.0 0.00 0.00 0.00 51 1015.8
20181211110223 48 75 2.0 6.0 0.00 0.00 0.00 51 1015.9
20181211105722 49 63 3.0 7.0 0.00 0.00 0.00 49 1016.3
20181211105223 49 73 4.0 7.0 0.00 0.00 0.00 49 1016.3
20181211104722 49 41 3.0 8.0 0.00 0.00 0.00 49 1016.4
20181211104222 49 53 2.0 8.0 0.00 0.00 0.00 51 1016.4
20181211103722 48 29 5.0 6.0 0.00 0.00 0.00 52 1016.1
20181211103222 48 64 3.0 6.0 0.00 0.00 0.00 53 1016.1
20181211102722 48 69 3.0 6.0 0.00 0.00 0.00 53 1016.2
20181211102222 47 34 4.0 6.0 0.00 0.00 0.00 57 1016.3
20181211101722 47 65 4.0 6.0 0.00 0.00 0.00 57 1016.4
20181211101221 46 63 2.0 6.0 0.00 0.00 0.00 61 1016.3
20181211100721 45 60 4.0 6.0 0.00 0.00 0.00 63 1016.4
20181211100221 45 51 2.0 4.0 0.00 0.00 0.00 62 1016.5
20181211095721 45 64 2.0 4.0 0.00 0.00 0.00 62 1016.9
20181211095221 45 31 4.0 4.0 0.00 0.00 0.00 62 1016.8
20181211094721 44 30 2.0 4.0 0.00 0.00 0.00 62 1016.9
20181211094220 44 69 2.0 4.0 0.00 0.00 0.00 62 1016.8
20181211093720 43 44 3.0 4.0 0.00 0.00 0.00 62 1016.5
20181211093221 43 69 3.0 5.0 0.00 0.00 0.00 63 1016.5
20181211092720 43 27 3.0 5.0 0.00 0.00 0.00 63 1016.6
20181211092220 42 29 4.0 5.0 0.00 0.00 0.00 63 1016.8
20181211091720 42 23 1.0 5.0 0.00 0.00 0.00 64 1016.8
20181211091219 41 37 2.0 6.0 0.00 0.00 0.00 66 1016.4
20181211090720 41 57 2.0 8.0 0.00 0.00 0.00 65 1016.6
20181211090220 41 63 4.0 8.0 0.00 0.00 0.00 64 1016.8
20181211085719 41 37 6.0 7.0 0.00 0.00 0.00 64 1017.0
20181211085219 41 45 5.0 6.0 0.00 0.00 0.00 63 1016.9
20181211084719 41 33 2.0 7.0 0.00 0.00 0.00 62 1016.9
20181211084219 41 32 5.0 7.0 0.00 0.00 0.00 60 1016.8
20181211083718 41 53 6.0 6.0 0.00 0.00 0.00 59 1016.8
20181211083219 41 37 4.0 6.0 0.00 0.00 0.00 57 1016.8
20181211082719 41 49 5.0 5.0 0.00 0.00 0.00 57 1016.7